Location: ??????
(41.3164°N, 22.6615°E)
Time: 19:09:13
(UTC+00:00)

CZ-2C R/B - Pass Details

Date: 27 May 2022
Orbit: 785 x 869 km, 98.2° (Epoch: 28 June)

Event Time Altitude Azimuth Distance (km) Brightness Sun altitude
Rises 01:26:56 0° 112° (ESE) 3,279 6.1 -14.7°
Reaches altitude 10° 01:30:29 10° 86° (E) 2,365 5.7 -14.3°
Maximum altitude 01:32:52 13° 59° (ENE) 2,153 6.0 -14.0°
Drops below altitude 10° 01:35:15 10° 32° (NNE) 2,391 6.4 -13.7°
Sets 01:38:52 0° 6° (N) 3,345 6.7 -13.2°
